Location: Eppenbrunn
(49.1158°N, 7.5601°E)
Time: 15:28:37
(UTC+00:00)

IGS 5A - Pass Details

Date: 11 August 2020
Orbit: 583 x 588 km, 97.6° (Epoch: 26 September)

Event Time Altitude Azimuth Distance (km) Brightness Sun altitude
Exits shadow 21:38:28 11° 227° (SW) 1,841 5.9 -21.0°
Maximum altitude 21:41:07 18° 269° (W) 1,450 5.7 -21.2°
Drops below altitude 10° 21:44:04 10° 314° (NW) 1,925 7.1 -21.4°
Sets 21:46:49 0° 333° (NNW) 2,832 8.5 -21.6°
